Temperature
13 13 13 13 13 13 13 13 13 13 13 13 13 13 13 13 13 14 14 14 14 14 14 14 15 15 15 15 15 15 16 16 16 16 16 16 16 16
13 13 13 13 13 13 13 13 13 13 12 12 13 13 13 13 13 13 13 13 13 14 14 14 14 14 15 15 15 15 15 15 15 15 15 15 15 16
13 13 13 13 13 13 13 12 12 12 12 12 12 12 12 13 13 13 13 13 13 13 13 14 14 14 14 14 14 15 15 15 15 15 15 15 15 15
13 13 13 13 12 12 12 12 12 12 12 12 12 12 12 12 12 12 12 12 13 13 13 13 13 14 14 14 14 14 14 15 15 15 15 15 15 15
13 12 12 12 12 12 12 12 12 12 12 11 11 11 12 12 12 12 12 12 12 12 12 13 13 13 13 13 14 14 14 14 14 14 14 15 15 15
12 12 12 12 12 12 12 12 12 11 11 11 11 11 11 11 11 11 11 11 12 12 12 12 12 12 13 13 13 13 13 14 14 14 14 14 14 14
12 12 12 12 12 12 12 11 11 11 11 11 11 11 11 11 11 10 10 11 11 11 11 12 12 12 12 12 13 13 13 13 13 14 14 14 14 14
12 12 12 12 11 11 11 11 11 11 11 10 10 10 10 10 10 10 10 10 10 11 10 11 11 11 11 12 12 12 12 13 13 13 13 13 13 13
12 11 11 11 11 11 11 11 11 10 10 10 10 10 10 10 10 10 10 9 9 10 10 10 10 11 11 11 11 11 12 12 12 12 13 13 13 13
11 11 11 11 11 11 10 10 10 10 10 9 9 9 9 9 9 9 9 9 9 9 9 9 10 10 10 10 11 11 11 11 11 12 12 12 12 12
11 11 11 10 10 10 10 10 10 10 10 9 9 9 9 9 9 9 9 9 9 9 9 9 9 9 10 10 10 10 10 11 11 11 11 12 12 12
11 11 10 10 10 10 10 10 10 9 9 9 9 9 9 8 8 8 8 8 8 8 8 8 8 8 8 9 10 10 10 10 10 10 10 11 11 11
10 10 10 10 10 10 10 9 9 9 9 8 8 8 8 8 8 8 8 8 8 8 8 7 8 7 7 8 9 9 9 9 9 10 10 10 10 10
10 10 10 10 9 9 9 9 9 9 8 8 8 8 7 7 7 7 7 7 7 7 7 7 7 7 7 7 7 8 8 9 9 9 9 9 10 10
10 10 9 9 9 9 9 9 8 8 8 8 7 7 7 7 7 7 7 7 7 7 7 7 6 6 6 6 7 7 7 8 8 8 8 9 9 9
10 9 9 9 9 9 8 8 8 8 7 7 7 7 6 6 6 6 6 6 6 6 6 6 6 6 6 6 6 6 7 7 7 7 8 8 8 9
9 9 9 9 8 8 8 8 7 7 7 7 6 6 6 6 6 6 5 5 5 5 5 6 6 6 6 6 6 6 6 6 7 7 7 7 8 8
9 8 8 8 8 7 7 7 7 7 6 6 6 6 5 5 5 5 5 5 5 5 5 5 5 5 5 5 5 6 6 6 6 6 6 6 7 7
8 8 8 8 7 7 7 6 6 6 6 5 5 5 5 5 5 4 4 4 4 4 4 4 4 4 4 4 5 5 5 5 5 6 6 6 6 7
8 8 7 7 7 6 6 6 6 5 5 5 5 5 5 4 4 4 4 4 4 4 4 4 4 4 4 4 4 5 5 5 5 5 5 5 6 6
8 7 7 7 6 6 6 5 5 5 5 5 4 4 4 4 4 4 3 3 3 3 3 4 4 4 4 4 4 4 4 4 4 4 4 5 5 5
7 7 7 6 6 6 5 5 5 5 4 4 4 4 4 3 3 3 3 3 3 3 3 3 3 3 3 3 3 3 4 4 4 4 4 4 5 5
7 6 6 6 5 5 5 5 4 4 4 4 4 3 3 3 3 3 3 3 2 2 3 3 3 3 3 3 3 3 3 3 4 4 4 4 4 5
Wind_Speed
4 4 3 3 3 4 3 3 2 3 3 3 3 3 4 5 7 7 5 5 6 6 5 5 6 6 6 5 5 4 4 4 4 5 6 7 8 8
2 4 4 3 3 3 3 3 3 2 2 3 3 3 4 5 7 8 7 6 6 6 5 6 6 7 7 6 6 6 6 6 6 6 7 8 8 9
3 4 3 4 3 4 4 3 3 3 2 3 3 3 4 4 5 6 7 6 6 6 6 6 7 7 7 7 7 7 7 8 8 7 8 9 9 10
4 4 4 3 3 3 3 4 3 3 2 4 4 3 4 4 3 4 6 7 6 7 7 7 7 7 7 7 8 8 8 8 9 9 9 10 10 11
3 3 4 4 4 3 4 4 3 4 2 3 4 3 3 4 4 5 5 4 7 8 8 8 8 9 9 9 9 9 9 9 9 10 10 10 11 11
3 2 3 3 3 4 4 5 5 5 4 3 3 3 3 4 3 3 4 4 5 7 7 8 8 9 10 10 10 10 10 9 9 9 10 10 10 10
2 2 2 2 3 3 3 4 4 4 4 4 4 4 4 4 4 3 4 5 5 4 4 5 6 5 8 11 11 12 11 10 10 10 10 10 10 10
3 2 1 1 2 3 5 5 5 4 4 3 4 5 5 4 4 5 4 5 5 3 4 6 4 5 6 8 10 11 11 11 11 11 10 10 10 11
3 3 3 3 3 2 5 6 6 7 7 5 5 5 5 5 5 6 5 6 7 5 5 7 5 6 7 10 11 11 11 12 12 12 12 12 12 12
3 2 2 2 4 4 5 5 4 5 6 5 4 6 6 5 5 6 8 8 7 6 5 7 6 6 7 8 12 12 12 13 13 13 13 13 13 13
3 2 2 2 4 6 5 5 6 6 8 10 11 11 14 15 11 5 6 5 7 7 4 5 6 6 6 6 9 12 12 13 13 14 14 14 14 13
2 1 1 2 4 5 4 5 6 6 7 8 9 11 11 12 13 7 5 5 6 6 4 3 5 5 6 5 4 6 9 12 14 15 16 16 15 10
3 2 2 4 5 6 6 5 8 9 7 7 7 7 6 5 5 5 5 5 6 6 6 4 5 5 6 6 6 5 5 6 7 10 13 16 16 12
3 2 3 6 7 9 8 9 12 11 6 6 6 6 5 5 5 5 7 8 8 9 9 6 6 6 7 8 7 5 5 6 6 6 7 11 13 15
3 5 7 8 9 8 10 12 10 6 5 6 6 6 5 5 5 5 7 8 10 12 13 11 7 7 7 8 8 7 7 6 5 5 5 5 6 6
5 6 9 10 8 9 9 8 6 5 5 5 5 5 5 5 5 5 6 6 7 8 10 12 10 8 8 8 8 8 8 6 5 5 5 6 6 7
4 3 4 5 5 5 5 6 5 4 5 5 5 5 6 6 6 5 5 6 7 8 8 7 8 9 8 8 8 8 7 7 6 6 6 7 6 6
4 4 5 5 6 6 6 5 5 4 4 5 5 6 6 6 7 6 6 6 7 8 8 7 6 6 6 7 8 8 7 7 6 6 5 6 7 6
4 5 6 6 6 6 5 5 5 5 4 5 5 6 6 7 7 7 7 7 8 8 8 6 6 6 8 10 7 7 7 7 6 6 6 6 8 7
5 6 6 6 6 5 5 5 5 5 5 5 6 6 6 7 7 7 7 8 8 9 9 7 6 6 8 9 9 8 10 8 6 7 7 6 7 8
6 6 6 6 5 5 5 5 5 5 6 6 6 6 6 7 7 8 8 10 10 9 9 8 7 9 7 6 7 8 7 10 11 8 7 6 7 7
6 6 6 6 5 5 5 5 5 6 6 6 6 6 6 7 8 9 8 8 8 9 10 8 7 7 6 8 10 10 9 7 8 11 12 11 7 7
6 6 6 5 5 5 5 5 6 6 5 5 6 6 6 7 7 8 8 8 8 9 9 9 7 6 7 7 8 8 9 8 6 6 7 10 13 14
Wind_Direction
32 35 33 25 26 11 12 24 32 2 346 352 7 1 21 24 11 10 9 360 351 345 336 329 322 321 318 310 300 291 280 277 273 261 249 235 230 227
40 40 28 17 18 13 4 4 16 11 340 334 342 346 2 356 357 357 347 333 324 317 314 311 310 314 310 302 298 289 281 277 269 262 257 246 236 235
27 46 36 24 18 10 2 6 7 10 347 325 337 348 358 353 344 336 328 321 314 308 305 299 296 298 304 301 292 285 278 273 267 262 258 254 246 241
20 26 18 24 20 7 2 1 352 354 6 339 332 340 338 327 336 332 326 323 323 309 299 292 292 291 291 294 292 284 276 271 267 262 258 255 252 246
19 22 17 21 11 360 1 358 345 347 352 338 325 328 323 328 337 329 326 327 324 318 307 292 289 285 281 280 282 281 274 269 266 262 260 258 255 251
17 23 27 33 20 0 359 352 350 347 338 332 319 317 314 316 334 328 326 323 314 310 309 302 298 293 284 275 274 274 272 267 264 263 258 254 251 251
353 355 42 39 21 2 350 339 342 334 330 330 322 322 319 329 319 311 314 310 306 308 314 306 300 288 283 277 267 264 263 264 263 260 258 253 248 246
338 347 359 355 342 329 321 316 318 321 316 316 312 312 309 314 315 313 310 315 307 300 314 302 298 291 276 271 262 255 255 257 259 259 256 253 248 244
330 327 323 346 357 323 311 300 292 291 291 286 293 296 301 313 318 315 307 297 287 284 300 293 290 288 283 282 269 259 257 256 254 255 254 252 249 246
302 311 316 338 346 345 331 325 307 290 280 288 280 286 296 296 290 288 288 292 287 284 280 283 286 283 288 284 274 258 253 256 253 251 252 251 249 247
288 319 351 356 343 345 334 317 312 308 303 296 295 296 297 296 292 294 293 294 292 288 277 276 287 292 289 282 274 263 256 256 257 257 254 250 248 247
289 276 317 319 326 333 320 311 306 304 314 311 302 297 291 288 283 266 264 276 282 285 285 294 297 313 301 285 277 278 267 264 261 259 255 249 246 242
291 287 278 304 307 305 302 287 288 298 299 296 294 293 291 288 282 274 275 266 272 274 281 292 290 292 282 289 293 275 264 265 266 264 258 251 244 235
288 285 276 293 294 294 291 285 292 299 293 290 289 290 291 292 289 291 290 287 279 275 278 274 270 271 278 285 285 281 274 270 263 257 260 261 249 243
276 288 288 288 292 289 282 283 289 285 279 280 283 281 279 281 286 292 292 292 293 290 285 276 265 265 260 268 275 279 284 272 253 254 256 253 245 237
273 284 287 286 280 277 280 277 264 259 266 269 275 279 285 288 288 285 286 288 291 291 288 281 271 261 266 266 265 271 271 266 263 264 264 262 258 247
274 277 277 278 276 273 273 270 264 265 269 268 272 281 286 289 288 286 283 287 286 288 291 287 279 273 261 263 268 265 267 269 263 260 266 267 264 251
267 265 267 266 268 272 274 274 271 269 269 272 275 277 281 284 286 286 284 282 283 283 281 282 287 295 293 279 253 262 268 267 266 261 261 266 269 264
253 257 262 265 265 268 269 269 272 270 272 276 278 277 277 279 282 285 284 283 281 282 280 277 278 276 282 284 273 253 262 270 268 265 257 262 267 267
242 252 258 262 265 267 270 273 276 280 279 278 279 280 281 281 282 282 281 281 283 286 283 273 265 262 265 274 280 277 259 253 259 264 265 270 272 267
246 251 255 258 262 266 270 271 273 277 279 280 280 280 280 280 281 280 281 283 283 284 280 274 266 263 267 273 277 275 267 256 251 254 260 265 271 267
249 253 255 256 259 261 265 269 271 272 275 276 280 280 280 279 280 283 283 284 283 280 283 282 278 275 267 266 272 277 281 275 269 269 265 259 252 255
252 255 254 255 257 260 261 265 271 274 273 275 278 278 280 282 282 280 280 280 281 282 285 285 282 276 268 264 270 275 276 277 278 281 280 275 262 260
Height
1555 1555 1554 1554 1553 1553 1552 1552 1552 1550 1550 1550 1549 1548 1547 1546 1545 1544 1543 1543 1542 1542 1542 1542 1542 1542 1542 1542 1542 1543 1543 1544 1544 1545 1546 1547 1548 1549
1556 1555 1555 1554 1554 1553 1553 1552 1552 1552 1550 1549 1548 1548 1546 1545 1544 1543 1542 1541 1541 1540 1540 1540 1539 1539 1539 1539 1540 1540 1540 1541 1541 1542 1543 1543 1544 1545
1557 1556 1555 1555 1554 1553 1553 1552 1552 1551 1550 1549 1548 1547 1546 1544 1543 1542 1541 1540 1539 1539 1538 1537 1537 1537 1536 1536 1536 1537 1537 1537 1538 1539 1539 1540 1541 1542
1557 1556 1555 1555 1554 1553 1552 1551 1551 1550 1549 1547 1546 1545 1544 1543 1541 1540 1539 1538 1537 1536 1536 1535 1534 1534 1533 1533 1533 1533 1533 1533 1534 1534 1535 1536 1537 1538
1556 1555 1555 1554 1553 1552 1552 1551 1550 1549 1548 1546 1545 1544 1542 1541 1539 1538 1537 1536 1535 1534 1533 1532 1531 1531 1530 1529 1529 1529 1529 1529 1529 1530 1531 1531 1532 1533
1555 1555 1554 1553 1552 1551 1550 1549 1548 1547 1546 1545 1543 1542 1540 1539 1537 1535 1533 1532 1531 1531 1529 1529 1528 1527 1526 1525 1525 1525 1524 1524 1525 1525 1525 1526 1527 1528
1554 1554 1553 1552 1551 1550 1549 1548 1547 1545 1544 1542 1541 1539 1538 1536 1535 1533 1531 1529 1528 1527 1526 1525 1523 1522 1522 1521 1521 1520 1520 1520 1520 1520 1520 1521 1521 1522
1553 1552 1551 1550 1549 1548 1547 1546 1545 1543 1541 1540 1539 1537 1535 1534 1532 1531 1528 1526 1523 1524 1522 1520 1519 1518 1517 1516 1516 1516 1515 1515 1515 1515 1515 1515 1516 1516
1550 1550 1549 1548 1547 1545 1544 1543 1542 1541 1540 1538 1536 1534 1532 1531 1529 1527 1525 1523 1520 1519 1518 1515 1514 1513 1512 1512 1511 1511 1510 1510 1510 1509 1509 1509 1510 1510
1548 1547 1546 1545 1544 1543 1541 1539 1538 1537 1536 1534 1533 1531 1529 1527 1526 1523 1521 1518 1516 1515 1514 1511 1509 1508 1507 1506 1506 1505 1505 1504 1504 1504 1504 1504 1504 1504
1545 1544 1543 1542 1541 1539 1538 1536 1534 1533 1532 1530 1529 1527 1525 1523 1521 1519 1516 1514 1510 1509 1509 1508 1504 1502 1501 1500 1500 1499 1499 1498 1498 1498 1497 1497 1497 1498
1542 1541 1540 1539 1537 1536 1534 1532 1529 1528 1526 1524 1523 1521 1519 1517 1516 1514 1512 1510 1506 1504 1504 1503 1500 1498 1494 1493 1493 1493 1492 1492 1491 1491 1491 1491 1491 1491
1538 1537 1536 1535 1533 1532 1530 1528 1526 1524 1521 1519 1517 1515 1513 1512 1510 1509 1508 1506 1503 1499 1499 1498 1495 1493 1491 1487 1486 1486 1486 1485 1484 1484 1483 1484 1484 1484
1534 1532 1531 1530 1529 1527 1525 1523 1521 1519 1516 1514 1512 1510 1508 1507 1505 1504 1502 1500 1498 1495 1493 1492 1490 1488 1485 1481 1479 1478 1478 1478 1477 1476 1476 1476 1476 1477
1529 1528 1527 1525 1524 1522 1520 1518 1516 1514 1511 1509 1507 1505 1503 1501 1499 1497 1495 1493 1490 1488 1487 1485 1484 1481 1479 1476 1473 1471 1470 1470 1470 1469 1469 1468 1468 1469
1524 1523 1522 1520 1518 1516 1514 1513 1511 1509 1507 1504 1502 1500 1498 1495 1493 1491 1488 1486 1483 1480 1479 1478 1476 1475 1472 1469 1467 1465 1464 1463 1462 1461 1461 1460 1461 1461
1519 1517 1516 1514 1512 1510 1509 1507 1505 1504 1501 1499 1497 1494 1492 1490 1487 1485 1483 1480 1477 1473 1470 1469 1468 1467 1465 1463 1460 1458 1457 1456 1455 1454 1453 1452 1452 1453
1514 1511 1510 1508 1507 1505 1503 1502 1500 1498 1496 1494 1491 1489 1486 1484 1481 1479 1476 1473 1470 1466 1464 1462 1460 1458 1456 1454 1454 1451 1450 1448 1447 1447 1446 1445 1443 1444
1508 1506 1504 1503 1501 1500 1498 1496 1494 1492 1490 1488 1485 1483 1480 1477 1474 1472 1469 1466 1463 1460 1457 1456 1454 1452 1449 1445 1444 1446 1444 1441 1440 1439 1438 1437 1436 1435
1502 1500 1499 1497 1496 1494 1492 1490 1488 1486 1484 1481 1479 1476 1474 1471 1468 1465 1462 1459 1456 1453 1450 1448 1447 1446 1443 1440 1436 1435 1437 1435 1434 1432 1431 1430 1429 1429
1496 1494 1493 1491 1490 1488 1486 1484 1481 1479 1477 1474 1472 1469 1467 1464 1461 1458 1455 1452 1449 1446 1443 1440 1439 1439 1436 1434 1430 1427 1427 1428 1427 1426 1424 1423 1422 1420
1489 1488 1486 1485 1483 1481 1479 1477 1475 1472 1470 1467 1465 1462 1460 1457 1454 1451 1448 1445 1442 1439 1435 1433 1432 1430 1429 1426 1422 1420 1418 1418 1418 1418 1417 1417 1415 1413
1482 1481 1479 1478 1476 1474 1472 1470 1468 1465 1463 1460 1458 1455 1452 1449 1446 1444 1441 1438 1435 1432 1429 1426 1424 1422 1420 1418 1416 1413 1411 1409 1408 1407 1406 1407 1407 1407